metlocid,date_time,avg_soilt0cm,stddev_soilt0cm,min_soilt0cm,max_soilt0cm,n_soilt0cm,avg_soilt10cm,stddev_soilt10cm,min_soilt10cm,max_soilt10cm,n_soilt10cm,n_comments
MISM,1/28/12,2.731282062,1.79129501,-0.84,4.82,39,0.646410253,0.124994467,0.36,0.83,39,0
MISM,1/29/12,0.788437489,3.444856221,-3.42,6.63,96,-0.158958338,0.849301231,-1.36,1.04,96,0
MISM,1/30/12,0.424583348,4.251448787,-5.53,8.04,96,-0.33916666,1.118244546,-2.1,1.23,96,0
MISM,1/31/12,-1.375833326,1.636604091,-3.64,1.26,96,-0.7684375,0.452409521,-1.32,0.52,96,0
MISM,2/1/12,-0.999895827,4.475401647,-7.18,5.77,96,-1.368750005,1.136459188,-3.18,0.09,96,0
MISM,2/2/12,-2.263333332,1.277975097,-4.35,-0.61,96,-1.515729165,0.30902817,-2.04,-0.65,96,0
MISM,2/3/12,-1.7878125,1.89917611,-3.78,2.14,96,-1.908958332,0.415599702,-2.42,-1.19,96,0
MISM,2/4/12,-3.279479169,2.002490754,-6.6,-0.02,96,-2.311249999,0.504360452,-3.35,-1.49,96,0
MISM,2/5/12,-3.526875015,1.847194368,-6.13,-0.82,96,-2.923958331,0.474850635,-3.66,-2.33,96,0
MISM,2/6/12,-2.702708321,3.880269779,-8.21,4.74,96,-2.910416666,0.994945048,-4.38,-1.53,96,0
MISM,2/7/12,0.752604151,3.796280506,-3.08,7.7,96,-1.326458337,1.178334224,-2.47,0.51,96,0
MISM,2/8/12,0.208541668,4.477476482,-5.8,6.77,96,-0.775624999,1.144109687,-2.66,0.68,96,0
MISM,2/9/12,-1.365208326,3.75700299,-6.95,4.05,96,-1.375208335,0.87602089,-2.97,-0.31,96,0
MISM,2/10/12,-1.85854167,3.781603663,-7.12,3.81,96,-1.659687504,0.868249852,-3.21,-0.63,96,0
MISM,2/11/12,-2.472708332,4.332688844,-8.26,3.65,96,-2.145208331,1.062538152,-3.89,-0.81,96,0
MISM,2/12/12,-4.868229148,1.336124793,-6.49,-2.36,96,-3.023020841,0.425752887,-3.48,-1.72,96,0
MISM,2/13/12,-4.823437493,1.997514158,-7.53,-1.67,96,-3.80083333,0.453739227,-4.47,-3.21,96,0
MISM,2/14/12,-5.548541687,1.148360831,-7.15,-3.77,96,-4.134895831,0.296924558,-4.59,-3.39,96,0
MISM,2/15/12,-5.103124992,3.897098319,-10.68,0.92,96,-4.460625028,0.887036233,-5.8,-3.13,96,0
MISM,2/16/12,-7.475729177,1.951789325,-10.6,-3.67,96,-4.978124984,0.555603605,-5.75,-3.51,96,0
MISM,2/17/12,-8.636562469,3.427740321,-13.19,-2.88,96,-6.165416663,0.827617899,-7.47,-5.11,96,0
MISM,2/18/12,-6.134270833,5.444738983,-13.24,2.61,96,-5.800729178,1.541888938,-7.65,-3.37,96,0
MISM,2/19/12,-2.309791669,0.656473804,-3.17,-1,96,-3.448437539,0.210824566,-3.68,-3.13,96,0
MISM,2/20/12,-0.659479162,2.861043732,-4.39,4,96,-2.821875005,0.877946547,-3.74,-1.3,96,0
MISM,2/21/12,0.564166647,3.072173115,-3.54,5.46,96,-1.441145831,0.964292886,-2.83,-0.08,96,0
MISM,2/22/12,-4.122291671,3.229547946,-8.94,1.58,96,-2.920520832,0.852137095,-4.3,-0.81,96,0
MISM,2/23/12,-4.567708363,5.08355214,-11.09,3.32,96,-4.010833335,1.32681705,-5.85,-2.13,96,0
MISM,2/24/12,-6.809479155,2.961547373,-11,-1.68,96,-4.553854167,0.74617252,-5.88,-2.99,96,0
MISM,2/25/12,-9.105833317,3.514483914,-13.79,-3.07,96,-6.373020803,0.813179733,-7.78,-5.1,96,0
MISM,2/26/12,-9.039374992,1.625811443,-10.95,-6.12,96,-6.809062526,0.412364415,-7.32,-6.18,96,0
MISM,2/27/12,-8.161041672,1.873411993,-11.62,-3.9,96,-6.649791688,0.467521975,-7.27,-6,96,0
MISM,2/28/12,-10.25489584,3.432822351,-14.42,-4.46,96,-7.711354191,0.844042465,-9.08,-6.63,96,0
MISM,2/29/12,-12.44572916,2.123272432,-15.97,-8.63,96,-8.836249967,0.483853513,-9.58,-7.52,96,0
MISM,3/1/12,-14.02802081,3.636719074,-18.82,-7.96,96,-10.30552076,0.846987043,-11.73,-9.17,96,0
MISM,3/2/12,-12.62572919,4.556494908,-18.05,-5.13,96,-10.13812499,1.280676879,-11.9,-8.28,96,0
MISM,3/3/12,-15.41354166,1.899941271,-18.56,-12.81,96,-10.79583333,0.767719348,-11.78,-8.84,96,0
MISM,3/4/12,-15.04135423,4.493806455,-19.85,-7.21,96,-12.03843753,1.15169295,-13.39,-10.2,96,0
MISM,3/5/12,-13.69083332,2.509833172,-16.96,-9.75,96,-11.30614585,0.665385354,-12.23,-10.37,96,0
MISM,3/6/12,-12.74281247,3.308428076,-17.43,-6.75,96,-10.88229166,0.796239146,-12.22,-9.76,96,0
MISM,3/7/12,-14.50187496,3.19997837,-18.4,-9.33,96,-11.54499995,0.695517974,-12.74,-10.63,96,0
MISM,3/8/12,-15.33354162,2.640900911,-18.63,-10.57,96,-12.28135414,0.609228387,-13.14,-11.45,96,0
MISM,3/9/12,-15.38312494,3.420323784,-19.93,-9.21,96,-12.58625005,0.751840167,-13.83,-11.56,96,0
MISM,3/10/12,-13.72135419,4.361612874,-18.92,-6.65,96,-12.35135415,1.184759012,-13.71,-10.64,96,0
MISM,3/11/12,-11.10604171,1.733441679,-13.13,-8.09,96,-10.6596875,0.553091703,-11.22,-9.7,96,0
MISM,3/12/12,-9.847083355,1.848644402,-11.91,-5.19,96,-9.899166673,0.495018739,-10.53,-8.98,96,0
MISM,3/13/12,-9.958749975,1.684222927,-11.93,-6.89,96,-9.706770827,0.481277895,-10.26,-8.88,96,0
MISM,3/14/12,-9.207187479,1.884154797,-11.44,-5.7,96,-9.339166641,0.586205776,-9.93,-8.36,96,0
MISM,3/15/12,-10.40197919,2.157395412,-12.75,-5.28,96,-9.624166658,0.459628414,-10.32,-8.78,96,0
MISM,3/16/12,-13.68708329,0.829388982,-14.86,-12.23,96,-10.91677081,0.435277324,-11.47,-9.73,96,0
MISM,3/17/12,-15.1095833,0.743472503,-17.06,-13.93,96,-12.1770834,0.325132899,-12.87,-11.49,96,0
MISM,3/18/12,-16.8042708,1.755518051,-18.73,-13.06,96,-13.54385414,0.287081034,-13.96,-12.9,96,0
MISM,3/19/12,-19.95156244,1.595148082,-22.33,-17.07,96,-15.01052086,0.525117277,-15.71,-13.7,96,0
MISM,3/20/12,-23.37760421,1.731147316,-25.53,-19.87,96,-17.28343758,0.661077073,-18.05,-15.76,96,0
MISM,3/21/12,-22.8511459,2.440347286,-25.61,-18.84,96,-18.115625,0.524068643,-18.75,-17.27,96,0
MISM,3/22/12,-23.71562507,1.964126604,-25.79,-19.93,96,-18.57041665,0.449162638,-19.24,-17.54,96,0
MISM,3/23/12,-22.1877084,2.589832865,-25.52,-18.29,96,-18.58208338,0.616835625,-19.34,-17.33,96,0
MISM,3/24/12,-16.25895833,2.52555595,-22,-13.14,96,-15.64354165,0.747730571,-17.3,-14.86,96,0
MISM,3/25/12,-22.42187496,1.205171587,-24.58,-20.8,96,-17.75010415,0.459678344,-18.18,-16.39,96,0
MISM,3/26/12,-22.01624999,1.228361462,-23.83,-20.36,96,-18.3134375,0.26766365,-18.73,-17.93,96,0
MISM,3/27/12,-19.73885423,0.667251812,-20.51,-18.49,96,-17.56958332,0.213205624,-17.92,-17.17,96,0
MISM,3/28/12,-18.90020823,0.943520752,-20.25,-16.91,96,-16.97322913,0.261990331,-17.28,-16.57,96,0
MISM,3/29/12,-18.53666655,1.367122688,-20.11,-15.77,96,-16.80385425,0.282851621,-17.12,-16.17,96,0
MISM,3/30/12,-12.2596875,1.975969014,-15.57,-9.18,96,-14.33552079,1.074377034,-16.14,-12.89,96,0
MISM,3/31/12,-14.71114581,1.091765213,-15.99,-12.14,96,-13.86781246,0.47426884,-14.4,-12.97,96,0
MISM,4/1/12,-16.68656246,0.392543183,-17.55,-16.04,96,-14.98447914,0.204223129,-15.13,-14.42,96,0
MISM,4/2/12,-18.34177081,1.134590014,-20.85,-16.26,96,-15.6994792,0.436928007,-16.49,-15.07,96,0
MISM,4/3/12,-22.12874991,0.651712291,-23.07,-20.96,96,-17.73104171,0.501596347,-18.34,-16.53,96,0
MISM,4/4/12,-25.42770849,1.300762094,-27.21,-22.99,96,-19.606875,0.760251041,-20.84,-18.36,96,0
MISM,4/5/12,-28.45583342,0.677062705,-29.64,-27.07,96,-21.81208326,0.560841267,-22.64,-20.85,96,0
MISM,4/6/12,-28.65937505,0.445177263,-29.29,-27.85,96,-22.82885432,0.135536887,-23.03,-22.58,96,0
MISM,4/7/12,-30.42635419,0.691474628,-31.15,-29.04,96,-23.81510417,0.478645015,-24.44,-23,96,0
MISM,4/8/12,-30.7626042,0.490476178,-31.54,-29.91,96,-24.70052081,0.105165206,-24.85,-24.45,96,0
MISM,4/9/12,-29.64979164,0.878738239,-30.84,-28.18,96,-24.54927089,0.217764921,-24.8,-24.19,96,0
MISM,4/10/12,-31.07916673,0.654290545,-31.95,-29.92,96,-25.17656239,0.327953317,-25.74,-24.79,96,0
MISM,4/11/12,-29.31375009,1.860033028,-31.63,-24.83,96,-25.28604164,0.453727177,-25.77,-24.1,96,0
MISM,4/12/12,-21.97739591,1.400887142,-24.7,-19.76,96,-21.98812493,1.043952337,-24.04,-20.68,96,0
MISM,4/13/12,-25.18552085,1.412493804,-27.92,-23.35,96,-22.08802084,0.557899578,-22.86,-20.97,96,0
MISM,4/14/12,-28.07666669,1.947698554,-30.38,-24.77,96,-23.24374998,0.810224421,-24.55,-22.18,96,0
MISM,4/15/12,-29.82416662,0.987082481,-30.79,-27.11,96,-24.96687496,0.160606177,-25.13,-24.57,96,0
MISM,4/16/12,-25.76968747,0.551320881,-27.01,-25.03,96,-23.62031251,0.400377302,-24.61,-23.12,96,0
MISM,4/17/12,-24.66229169,0.433617518,-25.36,-23.86,96,-22.69572926,0.164615956,-23.11,-22.48,96,0
MISM,4/18/12,-23.39385412,0.663468359,-24.13,-21.04,96,-22.05072918,0.224627226,-22.54,-21.47,96,0
MISM,4/19/12,-19.34250005,1.316712037,-21.07,-17.33,96,-20.20489583,0.710316468,-21.43,-19.12,96,0
MISM,4/20/12,-23.65593753,2.55522193,-26.78,-19,96,-20.61760416,1.030130071,-22.25,-19.17,96,0
MISM,4/21/12,-26.52218745,1.208197611,-28.26,-22.45,96,-22.85427084,0.380539124,-23.27,-22.27,96,0
MISM,4/22/12,-16.12250013,2.547794947,-22.03,-13.42,96,-19.28885422,1.556166662,-22.73,-17.87,96,0
MISM,4/23/12,-17.58718756,1.776553585,-20.06,-14.8,96,-18.47020841,0.52494608,-19.2,-17.84,96,0
MISM,4/24/12,-18.89552083,1.236803029,-21,-16.37,96,-18.58947915,0.396801363,-19.17,-17.97,96,0
MISM,4/25/12,-11.34343746,1.091909823,-15.5,-9.74,96,-15.66333335,1.061547722,-18.34,-14.85,96,0
MISM,4/26/12,-16.16895832,3.15736084,-21.01,-11.69,96,-15.83791669,1.052059529,-18.01,-14.75,96,0
MISM,4/27/12,-18.09937497,2.810079137,-21.6,-11.9,96,-18.1477084,0.535168299,-18.81,-16.61,96,0
MISM,4/28/12,-17.2635417,3.618098302,-23.4,-11.68,96,-16.78614585,0.931159293,-18.79,-15.65,96,0
MISM,4/29/12,-25.93458337,0.931752147,-27.52,-23.54,96,-21.00729158,0.939054878,-21.84,-18.84,96,0
MISM,4/30/12,-26.9302084,0.656946681,-27.78,-25.24,96,-22.56802078,0.447666797,-23.14,-21.81,96,0
MISM,5/1/12,-28.59979175,0.548673021,-29.68,-27.27,96,-23.84510414,0.389334066,-24.46,-23.14,96,0
MISM,5/2/12,-28.49791662,0.387545369,-29,-27.71,96,-24.3900001,0.104710226,-24.54,-24.19,96,0
MISM,5/3/12,-27.93541666,0.171555941,-28.4,-27.7,96,-24.35708336,0.039760245,-24.48,-24.32,96,0
MISM,5/4/12,-25.63718748,2.747680966,-28.77,-21.43,96,-23.95187493,0.794000306,-24.65,-22.23,96,0
MISM,5/5/12,-16.10833335,2.333693565,-21.34,-13.32,96,-19.68510411,1.444161403,-22.19,-17.56,96,0
MISM,5/6/12,-14.71302078,1.87708234,-17.15,-11.63,96,-17.42291661,0.577672209,-18.01,-16.05,96,0
MISM,5/7/12,-12.3665625,3.566957077,-16.74,-6.43,96,-16.0652084,0.715387286,-17.04,-14.24,96,0
MISM,5/8/12,-7.055937504,0.862919862,-8.4,-5.71,96,-12.88822919,0.459120436,-14.18,-12.5,96,0
MISM,5/9/12,-11.23229166,3.136552752,-15.65,-7.18,96,-13.17437502,0.906964678,-15.03,-12.26,96,0
MISM,5/10/12,-16.98604164,0.848813981,-18.45,-15.3,96,-16.21833329,0.612906212,-17.06,-15.06,96,0
MISM,5/11/12,-11.18093751,2.193878562,-15.8,-4.77,96,-14.86656251,0.814957358,-16.83,-13.7,96,0
MISM,5/12/12,-6.543749991,3.417312945,-12.83,-2.7,96,-11.45677083,0.847724478,-13.58,-10.34,96,0
MISM,5/13/12,-18.73135425,3.048127571,-23.48,-12.96,96,-15.47583333,1.634583916,-18.23,-12.64,96,0
MISM,5/14/12,-22.48406249,2.434128163,-24.36,-16.09,96,-19.40093758,0.47719603,-19.95,-18.28,96,0
MISM,5/15/12,-13.97229171,1.660559537,-17.07,-11.74,96,-16.18208344,0.894200124,-18.53,-15.37,96,0
MISM,5/16/12,-16.95614575,0.693706076,-18.18,-15.36,96,-16.60656234,0.275798716,-16.91,-16.21,96,0
MISM,5/17/12,-17.82729166,1.973699346,-21.08,-15.04,96,-16.84114585,0.543719915,-18.1,-16.25,96,0
MISM,5/18/12,-19.52312503,0.850746297,-21.15,-18.3,96,-18.19187482,0.189999174,-18.44,-17.96,96,0
MISM,5/19/12,-19.61468746,0.675805872,-21.51,-18.37,96,-18.1914583,0.150864009,-18.65,-17.99,96,0
MISM,5/20/12,-22.88489578,0.572109703,-23.82,-21.67,96,-19.78322911,0.437383383,-20.15,-18.67,96,0
MISM,5/21/12,-20.779375,1.762879113,-23,-16.3,96,-19.70208339,0.478633888,-20.19,-18.59,96,0
MISM,5/22/12,-15.07520835,0.335957289,-16.13,-14.48,96,-17.13145838,0.542411723,-18.53,-16.49,96,0
MISM,5/23/12,-17.65614582,1.72839709,-20.32,-14.26,96,-17.08250006,0.60199489,-18.13,-16.27,96,0
MISM,5/24/12,-23.75093754,2.075671116,-26.69,-20.37,96,-19.82645832,1.071473151,-21.43,-18.15,96,0
MISM,5/25/12,-27.65166656,1.45804024,-29.31,-24.95,96,-22.50520837,0.85539518,-23.51,-21.36,96,0
MISM,5/26/12,-23.60864584,3.252892907,-27.76,-18.95,96,-22.43312496,1.028438026,-23.5,-20.31,96,0
MISM,5/27/12,-23.34385415,2.181904261,-25.95,-19.29,96,-21.00156254,0.746925364,-22.18,-20.03,96,0
MISM,5/28/12,-27.22739593,0.919869793,-28.92,-25.77,96,-23.10322913,0.398207836,-23.62,-22.2,96,0
MISM,5/29/12,-24.53416659,2.191428524,-28.64,-22.17,96,-22.97968755,0.768020651,-23.95,-21.78,96,0
MISM,5/30/12,-23.62562501,0.775967638,-24.97,-22.37,96,-21.93562504,0.231702244,-22.36,-21.65,96,0
MISM,5/31/12,-23.74968753,1.13078127,-25.6,-21.82,96,-22.06750007,0.278722639,-22.53,-21.6,96,0
MISM,6/1/12,-26.6821875,0.589297923,-27.88,-25.56,96,-23.23427081,0.372778351,-23.84,-22.55,96,0
MISM,6/2/12,-29.76729165,0.897786152,-30.86,-27.92,96,-25.01145834,0.622243819,-25.78,-23.86,96,0
MISM,6/3/12,-29.56416663,0.526047174,-30.3,-28.35,96,-25.64677074,0.171522369,-25.82,-25.34,96,0
MISM,6/4/12,-29.19604162,0.877296672,-30.9,-27.86,96,-25.56458338,0.248549061,-26.09,-25.26,96,0
MISM,6/5/12,-32.0163541,0.602743064,-33.42,-31.01,96,-26.94572928,0.396940346,-27.68,-26.11,96,0
MISM,6/6/12,-32.00072924,0.470140361,-32.82,-30.87,96,-27.60687504,0.141215229,-27.8,-27.38,96,0
MISM,6/7/12,-31.20447924,1.716904058,-34.25,-29.35,96,-27.24718748,0.423073222,-28.22,-26.73,96,0
MISM,6/8/12,-34.24572915,1.10994802,-35.3,-31.43,96,-28.9772917,0.338919302,-29.43,-28.24,96,0
MISM,6/9/12,-28.43156256,1.076065176,-31.33,-27.02,96,-27.07052088,0.793622429,-28.68,-26.11,96,0
MISM,6/10/12,-32.3683333,1.482117677,-33.94,-28.93,96,-27.64968757,0.810954577,-28.71,-26.25,96,0
MISM,6/11/12,-31.2440625,1.286093592,-33.59,-29.35,96,-28.11510422,0.472687718,-28.8,-27.52,96,0
MISM,6/12/12,-32.1295834,0.551905481,-32.76,-31.09,96,-28.22583328,0.254284065,-28.61,-27.89,96,0
MISM,6/13/12,-32.510104,0.323287443,-33.17,-31.42,96,-28.7541666,0.066263652,-28.9,-28.62,96,0
MISM,6/14/12,-28.92197913,2.372926508,-32.79,-25.71,96,-27.82729163,0.866456195,-28.82,-26.32,96,0
MISM,6/15/12,-27.26843748,2.64066267,-30.76,-20.39,96,-26.47718741,0.434052486,-27.17,-25.42,96,0
MISM,6/16/12,-17.57479164,1.739691447,-20.39,-13.25,96,-22.48729175,1.281620241,-25.32,-20.37,96,0
MISM,6/17/12,-11.38864582,1.146378878,-14.07,-9.79,96,-17.97947921,1.069020516,-20.3,-16.82,96,0
MISM,6/18/12,-20.65822926,3.214563229,-25.11,-14.35,96,-19.65427085,1.512086553,-22.14,-17.17,96,0
MISM,6/19/12,-25.79375001,0.9860215,-27.89,-24.08,96,-23.15343755,0.52217113,-24.17,-22.17,96,0
MISM,6/20/12,-27.76187499,0.972174253,-29.05,-26.08,96,-24.71541663,0.310913544,-25.38,-24.21,96,0
MISM,6/21/12,-31.44093756,0.89767436,-33.09,-29.08,96,-26.6514583,0.651610127,-27.64,-25.41,96,0
MISM,6/22/12,-32.78166662,0.655955037,-33.42,-30.89,96,-28.24718748,0.219711286,-28.46,-27.66,96,0
MISM,6/23/12,-30.54947909,1.425509223,-32.72,-28.41,96,-27.59322917,0.407814408,-28.21,-27.03,96,0
MISM,6/24/12,-31.92354178,1.355288263,-34.03,-29.96,96,-28.1670833,0.379456464,-29.04,-27.73,96,0
MISM,6/25/12,-30.89916662,1.696918516,-34.04,-28.8,96,-28.51552089,0.550048533,-29.2,-27.61,96,0
MISM,6/26/12,-28.1771875,1.028852015,-29.87,-25.4,96,-27.11895833,0.37298359,-27.61,-26.51,96,0
MISM,6/27/12,-24.75895834,1.398253427,-26.63,-21.78,96,-25.20562506,0.430208753,-26.46,-24.73,96,0
MISM,6/28/12,-28.05802083,0.558244728,-29.01,-26.75,96,-26.04187504,0.315442233,-26.38,-25.36,96,0
MISM,6/29/12,-27.83364582,0.424073288,-28.62,-26.98,96,-26.31552082,0.087766084,-26.43,-26.11,96,0
MISM,6/30/12,-27.46677077,0.772120101,-28.91,-25.82,96,-26.10468747,0.175511037,-26.39,-25.8,96,0
MISM,7/1/12,-29.71145837,0.528895402,-30.71,-28.79,96,-27.05364595,0.2971412,-27.43,-26.39,96,0
MISM,7/2/12,-29.05864584,0.617732008,-30.65,-28.26,96,-27.04760418,0.131962888,-27.37,-26.87,96,0
MISM,7/3/12,-31.12843742,0.593636899,-32.16,-29.77,96,-27.96906263,0.292603859,-28.45,-27.39,96,0
MISM,7/4/12,-29.86520827,0.684964723,-31.63,-28.5,96,-28.00333339,0.257713245,-28.43,-27.58,96,0
MISM,7/5/12,-32.86489578,1.682060662,-35.71,-30.33,96,-28.69781252,0.703849923,-30.07,-27.62,96,0
MISM,7/6/12,-36.51166654,0.432202848,-37.14,-35.62,96,-31.00458334,0.464979707,-31.68,-30.1,96,0
MISM,7/7/12,-36.58697907,0.74155464,-37.93,-34.87,96,-31.89572924,0.152299888,-32.17,-31.69,96,0
MISM,7/8/12,-34.33104177,0.740015075,-35.5,-33,96,-31.23052098,0.321232289,-31.71,-30.85,96,0
MISM,7/9/12,-33.91614604,0.79606444,-34.49,-30.35,96,-30.96114594,0.057305635,-31.04,-30.69,96,0
MISM,7/10/12,-23.79614582,5.393339128,-31.02,-15.61,96,-27.74229159,1.995319544,-30.64,-23.73,96,0
MISM,7/11/12,-17.76927078,1.027051201,-20.32,-15.98,96,-22.45156252,0.514549053,-23.65,-21.83,96,0
MISM,7/12/12,-24.59052086,2.398264806,-28.65,-20.37,96,-23.71031251,1.006723147,-25.58,-22.15,96,0
MISM,7/13/12,-30.5996875,0.915116852,-31.86,-28.67,96,-27.25656245,0.747058606,-27.93,-25.63,96,0
MISM,7/14/12,-32.72479169,1.847317278,-35.45,-29.53,96,-28.68374993,0.793192542,-30.08,-27.7,96,0
MISM,7/15/12,-36.0407294,0.291938266,-36.49,-35.45,96,-31.01958338,0.390931193,-31.39,-30.11,96,0
MISM,7/16/12,-35.93781265,0.339997543,-36.52,-35.38,96,-31.60437487,0.178153326,-31.94,-31.37,96,0
MISM,7/17/12,-29.9496874,2.575890805,-36.03,-27.17,96,-29.87041664,1.31628263,-31.94,-28.29,96,0
MISM,7/18/12,-29.10833339,0.605086602,-30.66,-28.33,96,-28.15843753,0.098902617,-28.35,-27.99,96,0
MISM,7/19/12,-34.41770824,1.544093857,-36.07,-30.79,96,-30.07166666,0.957149979,-31.22,-28.37,96,0
MISM,7/20/12,-29.79666676,2.511979127,-34.75,-26.21,96,-29.58604167,1.067993245,-31.17,-27.73,96,0
MISM,7/21/12,-29.49781249,2.225822238,-32.51,-26.14,96,-27.83312511,0.54038049,-28.93,-27.27,96,0
MISM,7/22/12,-31.8915625,1.186127852,-34.1,-30.6,96,-29.03562506,0.287335581,-29.79,-28.78,96,0
MISM,7/23/12,-31.36270841,2.06886467,-33.65,-27.75,96,-29.54281257,0.490781878,-30.01,-28.39,96,0
MISM,7/24/12,-22.48947928,2.347502283,-27.55,-19.19,96,-26.12281245,1.255925564,-28.37,-24.1,96,0
MISM,7/25/12,-19.66135401,1.491693903,-22.52,-17.06,96,-23.29145829,0.293924379,-24.06,-22.69,96,0
MISM,7/26/12,-16.56052092,0.424592407,-18.42,-15.95,96,-21.33395843,0.538396161,-22.63,-20.76,96,0
MISM,7/27/12,-19.44885417,0.915591102,-21.25,-17.53,96,-21.48687508,0.305773721,-21.87,-20.8,96,0
MISM,7/28/12,-18.35270836,0.964171349,-20.18,-16.52,96,-20.99833341,0.245796903,-21.46,-20.72,96,0
MISM,7/29/12,-24.73541659,1.630148727,-26.28,-20.3,96,-23.00739578,1.011045622,-24.21,-21.14,96,0
MISM,7/30/12,-29.57437509,2.184118741,-32.15,-25.92,96,-25.69041669,1.066947318,-27.4,-24.23,96,0
MISM,7/31/12,-31.51041665,0.551491528,-32.48,-30.29,96,-27.86156243,0.298721175,-28.25,-27.41,96,0
MISM,8/1/12,-30.07937495,0.928820317,-31.19,-28.66,96,-27.74291662,0.260056394,-28.15,-27.37,96,0
MISM,8/2/12,-22.29781251,6.957810577,-31.19,-13.7,96,-26.04895832,2.263965545,-28.18,-21.87,96,0
MISM,8/3/12,-20.94281249,4.183074681,-27.26,-14.19,96,-22.26218754,1.092182957,-24.19,-20.99,96,0
MISM,8/4/12,-30.53562492,1.320781961,-32.19,-27.46,96,-26.45583336,1.06788203,-27.95,-24.24,96,0
MISM,8/5/12,-30.05760411,1.17616916,-32.71,-28.2,96,-27.66541666,0.263074524,-28.17,-27.28,96,0
MISM,8/6/12,-33.25166637,1.35676595,-34.96,-30.29,96,-29.33968753,0.508904806,-29.96,-28.2,96,0
MISM,8/7/12,-31.85749994,0.851061173,-33.48,-29.5,96,-29.24031262,0.181962695,-29.52,-28.92,96,0
MISM,8/8/12,-30.90041665,1.685360521,-32.97,-26.56,96,-29.25250002,0.243474735,-29.49,-28.37,96,0
MISM,8/9/12,-29.43812493,2.807708642,-33.77,-25.42,96,-27.96843753,0.633432298,-29.28,-27.16,96,0
MISM,8/10/12,-34.69802078,1.218496689,-36.53,-33.09,96,-30.25635417,0.594896098,-31.36,-29.32,96,0
MISM,8/11/12,-33.79447891,2.168258979,-36.29,-30.27,96,-31.09687489,0.561417961,-31.57,-29.79,96,0
MISM,8/12/12,-31.29677097,1.985189723,-35.65,-28.99,96,-29.34041667,0.388760374,-30.39,-28.88,96,0
MISM,8/13/12,-37.86270861,0.672449514,-38.59,-35.76,96,-32.18791658,0.776417979,-32.96,-30.44,96,0
MISM,8/14/12,-35.77406247,1.035024257,-37.38,-34.04,96,-32.44999997,0.362703266,-32.93,-31.94,96,0
MISM,8/15/12,-36.91343757,0.449380609,-37.59,-35.71,96,-32.77677083,0.261246077,-33.16,-32.28,96,0
MISM,8/16/12,-37.01854165,0.883961319,-38,-34.4,96,-33.34354166,0.143218508,-33.5,-32.99,96,0
MISM,8/17/12,-34.77708324,1.217911962,-36.75,-31.57,96,-32.36854156,0.287987501,-32.97,-31.93,96,0
MISM,8/18/12,-36.62083328,0.384306977,-37.23,-35.65,96,-33.09520825,0.122705959,-33.29,-32.79,96,0
MISM,8/19/12,-33.46437498,1.87481737,-37.38,-31.41,96,-32.19468764,0.838322907,-33.34,-31.1,96,0
MISM,8/20/12,-30.89947921,1.178387457,-33.09,-29.52,96,-30.50729162,0.546073939,-31.22,-29.73,96,0
MISM,8/21/12,-29.87697925,2.887172844,-31.56,-20.07,96,-29.8775,0.38865225,-30.18,-28.32,96,0
MISM,8/22/12,-15.20458335,2.533990333,-19.87,-10.64,96,-24.03833336,1.954093503,-28.18,-20.95,96,0
MISM,8/23/12,-18.87791662,3.56630428,-22.81,-10.88,96,-21.83125001,1.107578929,-23.53,-20.44,96,0
MISM,8/24/12,-20.67854164,1.956976661,-22.35,-17.21,96,-23.41395829,0.289534907,-23.66,-22.53,96,0
MISM,8/25/12,-17.10354173,0.968932138,-20.37,-15.74,96,-21.44833324,0.511764089,-22.49,-20.87,96,0
MISM,8/26/12,-24.73895834,1.654203241,-27.03,-20.6,96,-23.44197915,1.108081875,-24.7,-21.22,96,0
MISM,8/27/12,-27.98124989,1.292469085,-30.6,-25.99,96,-25.63562495,0.589581172,-26.83,-24.71,96,0
MISM,8/28/12,-31.75937494,0.522819857,-32.44,-30.63,96,-28.01343763,0.536638436,-28.54,-26.87,96,0
MISM,8/29/12,-27.99531251,0.836979442,-30.49,-27.12,96,-27.43187513,0.486930916,-28.47,-26.81,96,0
MISM,8/30/12,-26.28291667,0.607047948,-27.2,-25.26,96,-26.38166662,0.2614199,-26.8,-25.87,96,0
MISM,8/31/12,-24.48895844,0.848094376,-25.73,-23.04,96,-25.41427082,0.35475936,-25.85,-24.8,96,0
MISM,9/1/12,-21.08197924,1.095329485,-22.98,-19.36,96,-23.76624999,0.618501189,-24.79,-22.74,96,0
MISM,9/2/12,-22.32302072,1.520844099,-25.48,-19.92,96,-23.11968744,0.398493158,-23.97,-22.65,96,0
MISM,9/3/12,-26.33875002,0.611414786,-27.37,-25.28,96,-25.00072924,0.405754006,-25.55,-24.01,96,0
MISM,9/4/12,-22.26270835,1.558639441,-25.28,-20.45,96,-24.09499997,0.782154949,-25.32,-23.12,96,0
MISM,9/5/12,-23.21125003,0.943714074,-26.08,-22.08,96,-23.5876042,0.159411659,-23.96,-23.26,96,0
MISM,9/6/12,-28.12593748,0.731919854,-29.27,-26.21,96,-25.50510418,0.668690772,-26.28,-24.01,96,0
MISM,9/7/12,-30.05364589,0.434862705,-30.65,-29.08,96,-27.06927083,0.401741663,-27.56,-26.3,96,0
MISM,9/8/12,-30.5002084,1.081282796,-33.18,-29.5,96,-27.716875,0.245739846,-28.45,-27.54,96,0
MISM,9/9/12,-34.61427077,0.492695553,-35.24,-33.22,96,-29.69083331,0.577882985,-30.41,-28.49,96,0
MISM,9/10/12,-31.74343759,2.123593782,-34.97,-28.21,96,-29.81874992,0.598869448,-30.46,-28.58,96,0
MISM,9/11/12,-24.55874997,1.980903669,-28.08,-21.06,96,-26.79333333,1.025532628,-28.55,-24.96,96,0
MISM,9/12/12,-18.49531259,1.852938946,-21.02,-15.97,96,-23.28822919,1.015274948,-24.92,-21.63,96,0
MISM,9/13/12,-21.07291673,1.789805575,-23.9,-16.89,96,-22.45333334,0.579970266,-23.46,-21.59,96,0
MISM,9/14/12,-23.81791671,0.851555804,-25.12,-22.26,96,-24.00739582,0.216650238,-24.32,-23.48,96,0
MISM,9/15/12,-21.34083335,1.376238673,-24.05,-19.54,96,-23.25406247,0.494233167,-24.07,-22.59,96,0
MISM,9/16/12,-25.04666664,0.802577011,-26.37,-23.04,96,-24.13968756,0.442722322,-24.69,-22.99,96,0
MISM,9/17/12,-24.67802082,1.133594769,-26.41,-22.48,96,-24.60906239,0.268053689,-24.94,-24.15,96,0
MISM,9/18/12,-25.69739582,1.471512036,-30.13,-23.69,96,-24.78666667,0.242090324,-25.62,-24.48,96,0
MISM,9/19/12,-30.05854177,2.675375126,-33.29,-25.66,96,-27.13541665,0.639585234,-28.1,-25.68,96,0
MISM,9/20/12,-28.6440625,2.279250311,-31.85,-25.19,96,-27.11614589,0.460711967,-27.93,-26.47,96,0
MISM,9/21/12,-22.09927072,3.344644471,-26.69,-17.46,96,-24.91885416,1.257802328,-26.44,-22.76,96,0
MISM,9/22/12,-20.33968763,2.667251931,-23.46,-15.67,96,-23.02104163,0.665757225,-23.81,-21.72,96,0
MISM,9/23/12,-20.02770841,0.927865041,-21.52,-18.35,96,-22.02906255,0.246675126,-22.38,-21.65,96,0
MISM,9/24/12,-19.22656243,2.295691614,-22.83,-14.46,96,-21.64145841,0.468163221,-22.18,-20.86,96,0
MISM,9/25/12,-23.44291663,2.434424053,-26.17,-18.09,96,-23.0482292,0.589020631,-23.88,-21.61,96,0
MISM,9/26/12,-23.65666674,2.187485705,-25.95,-19.59,96,-23.49531259,0.394063652,-24.19,-22.89,96,0